{"data":{"norad_id":54692,"intl_designator":"2022-167L","name":"JILIN-1 GAOFEN 03D47","alt_names":[],"object_type":"PAYLOAD","status":"ACTIVE","operator":null,"country":"PRC","launch_date":"2022-12-09","launch_site_code":"SEAL","launch_vehicle":null,"mission":null,"orbit_class":"UNKNOWN","rcs_meters":null,"size_class":null,"mass_kg":null,"dimensions":null,"purposes":[],"wikipedia_slug":null,"has_3d_model":false,"image_url":null,"decayed_at":null,"tle_current":{"epoch":"2026-05-25T05:12:17.161920Z","epoch_age_seconds":53628,"freshness":"FRESH","line1":"1 54692U 22167L   26145.21686530  .00010073  00000+0  31552-3 0  9992","line2":"2 54692  97.6918 313.8604 0007515 190.3638 169.7450 15.33278796191825","mean_motion":15.33278796,"eccentricity":0.0007515,"inclination_deg":97.6918,"raan_deg":313.8604,"arg_perigee_deg":190.3638,"mean_anomaly_deg":169.745,"bstar":0.00031552,"rev_number":19182,"period_min":93.916383879869,"perigee_km":460.89432801053,"apogee_km":471.18112262268,"semimajor_km":6844.1747253166,"source":"CELESTRAK","updated_at":"2026-05-25T13:37:58.709833Z"}}}